"2022-11-07 00:01:00",3190725,7.285999,202.4672,5.546631,0.6203097,9.11,0,5.562666,201.335,4.698708,0.809415,7.1,0,-999,0,11,86.7,11.06,11.07,0.2,0,0,11.31,13.24,0.2,100.7736,3.117,3.117,3.117,100,0,0,0,386.4,134.2,134.2
"2022-11-07 00:02:00",3190726,7.295333,204.3334,5.2353,1.142768,10.05,0,5.470666,199.2647,6.472426,1.017864,7.75,0,-999,0,11,86.5,11.06,11.07,0.2,0,0,11.31,13.24,0.2,100.7791,3.12,3.12,3.117,100,0,0,0,386.4,134.2,134.2
"2022-11-07 00:03:00",3190727,7.875333,201.1295,6.183147,0.9521686,9.57,0,6.147334,201.7852,9.234418,0.9445384,8.03,0,-999,0,11,86.4,11.07,11.07,0.2,0,0,11.31,13.23,0.2,100.7723,3.12,3.12,3.12,100,0,0,0,386.4,134.3,134.2
"2022-11-07 00:04:00",3190728,7.29,202.323,7.423039,0.9316937,8.98,0,5.462667,202.7206,7.39101,0.7290218,6.7,0,-999,0,11,86.1,11.08,11.07,0.2,0,0,11.32,13.26,0.2,100.773,3.123,3.123,3.121,100,0,0,0,386.4,134.2,134.2
"2022-11-07 00:05:00",3190729,6.970667,198.9953,7.904046,0.6755193,8.45,0,4.964667,192.9281,7.654737,0.718098,7.14,0,-999,0,11,86.5,11.05,11.02,0.2,0,0,11.31,13.25,0.2,100.7715,3.124,3.125,3.123,100,0,0,0,386.4,134.2,134.2
"2022-11-07 00:06:00",3190730,7.354001,210.1373,5.375762,0.8427716,8.57,0,6.576666,211.5996,3.737325,0.4970402,7.52,0,-999,0,10.99,86.5,11.04,11.01,0.2,0,0,11.31,13.24,0.2,100.7729,3.126,3.126,3.124,100,0,0,0,386.4,134.2,134.2
"2022-11-07 00:07:00",3190731,7.639333,200.8015,7.412725,1.375778,10.55,0,5.79,200.3342,8.773316,1.251761,8.26,0,-999,0,10.91,86.8,11.01,10.97,0.2,0,0,11.31,13.26,0.2,100.7768,3.128,3.128,3.126,100,0,0,0,386.4,134.2,134.2
"2022-11-07 00:08:00",3190732,7.916,202.6663,5.322543,0.8754868,9.57,0,5.318,202.1977,5.416986,0.7121912,7.04,0,-999,0,10.95,86.5,11.01,10.99,0.2,0,0,11.31,13.25,0.2,100.7752,3.129,3.129,3.128,100,0,0,0,386.4,134.2,134.2
"2022-11-07 00:09:00",3190733,6.850667,204.9345,4.581207,1.0442,9.05,0,5.35,206.1291,5.545689,0.7528435,6.97,0,-999,0,10.89,87,10.94,10.88,0.2,0,0,11.31,13.24,0.2,100.773,3.13,3.13,3.129,100,0,0,0,386.4,134.2,134.2
"2022-11-07 00:10:00",3190734,9.117334,202.403,4.713645,0.9691197,11.26,0,7.195333,195.8073,7.001543,1.060697,9.54,0,-999,0,10.87,87,10.97,10.95,0.2,0,0,11.31,13.25,0.2,100.7771,3.132,3.132,3.13,100,0,0,0,386.4,134.2,134.2
"2022-11-07 00:11:00",3190735,8.801332,202.4704,4.347802,1.424073,10.84,0,6.710667,196.8672,5.916543,0.9068661,8.38,0,-999,0,10.95,86.5,11.04,11.04,0.2,0,0,11.31,13.25,0.2,100.7759,3.132,3.132,3.132,100,0,0,0,386.4,134.2,134.2
"2022-11-07 00:12:00",3190736,6.228,202.3982,6.720744,0.6393455,7.25,0,4.442667,199.6512,9.128736,0.728537,5.77,0,-999,0,10.94,86.8,10.99,10.97,0.2,0,0,11.3,13.23,0.2,100.7724,3.133,3.133,3.132,100,0,0,0,386.4,134.2,134.2
"2022-11-07 00:13:00",3190737,6.822667,198.5341,4.160121,0.7192355,8.64,0,5.205333,195.0178,8.111719,0.8700565,6.8,0,-999,0,10.81,87.5,10.87,10.79,0.2,0,0,11.29,13.25,0.2,100.7756,3.134,3.134,3.133,100,0,0,0,386.4,134.2,134.2
"2022-11-07 00:14:00",3190738,8.212667,196.6728,5.946172,0.5765468,9.25,0,6.139334,196.3258,5.796824,0.8517391,7.71,0,-999,0,10.79,87.5,10.89,10.82,0.2,0,0,11.29,13.24,0.2,100.7778,3.134,3.135,3.134,100,0,0,0,386.4,134.2,134.2
"2022-11-07 00:15:00",3190739,8.291333,201.4561,5.790188,0.9926588,9.96,0,6.144666,199.9995,9.651707,1.064906,8.72,0,-999,0,10.84,87,10.92,10.91,0.2,0,0,11.29,13.24,0.2,100.7822,3.135,3.136,3.135,100,0,0,0,386.4,134.2,134.2
"2022-11-07 00:16:00",3190740,7.255999,202.5323,3.720429,0.5132484,8.28,0,5.840666,198.8002,3.654059,0.5087956,6.94,0,-999,0,10.86,87.2,10.91,10.91,0.2,0,0,11.29,13.24,0.2,100.7822,3.136,3.136,3.136,100,0,0,0,386.4,134.2,134.2
"2022-11-07 00:17:00",3190741,7.432,197.8656,7.542383,0.7589043,8.73,0,5.676,196.3449,7.308796,0.8188593,7.5,0,-999,0,10.82,87.6,10.89,10.87,0.2,0,0,11.28,13.24,0.2,100.7864,3.136,3.136,3.136,100,0,0,0,386.4,134.2,134.2
"2022-11-07 00:18:00",3190742,8.184,201.7258,8.960361,1.551914,10.34,0,6.163333,201.6556,11.65749,1.695267,9.06,0,-999,0,10.83,87.2,10.92,10.9,0.2,0,0,11.27,13.22,0.2,100.7819,3.136,3.136,3.136,100,0,0,0,386.4,134.2,134.2
"2022-11-07 00:19:00",3190743,8.078001,199.2603,6.724934,1.274808,10.62,0,6.573333,202.5289,12.04261,0.9882824,8.57,0,-999,0,10.84,87.2,10.93,10.89,0.2,0,0,11.27,13.23,0.2,100.7807,3.136,3.136,3.136,100,0,0,0,386.4,134.2,134.2
"2022-11-07 00:20:00",3190744,7.064667,195.5866,8.536278,0.6587347,8.9,0,5.192667,194.6732,9.469183,0.8081374,7.49,0,-999,0,10.85,87.3,10.9,10.88,0.2,0,0,11.27,13.24,0.2,100.7824,3.136,3.136,3.136,100,0,0,0,386.4,134.2,134.2
"2022-11-07 00:21:00",3190745,7.76,202.7991,6.067219,0.887273,9.77,0,6.523333,200.4671,4.9492,0.8141471,7.67,0,-999,0,10.81,87.2,10.89,10.87,0.2,0,0,11.27,13.23,0.2,100.7827,3.136,3.136,3.136,100,0,0,0,386.4,134.2,134.2
"2022-11-07 00:22:00",3190746,7.118667,204.39,8.159152,0.8582917,8.41,0,5.177999,204.6696,8.911312,0.9525138,6.91,0,-999,0,10.8,87.6,10.87,10.84,0.2,0,0,11.27,13.25,0.2,100.787,3.136,3.136,3.136,100,0,0,0,386.4,134.2,134.2
"2022-11-07 00:23:00",3190747,7.128667,202.2662,5.308355,0.8364836,8.28,0,5.542,196.0678,8.22331,0.9209793,7.17,0,-999,0,10.8,87.6,10.85,10.83,0.2,0,0,11.27,13.23,0.2,100.7871,3.136,3.136,3.136,100,0,0,0,386.4,134.2,134.2
"2022-11-07 00:24:00",3190748,8.009333,201.1368,8.499653,1.114728,10.4,0,6.683333,198.9988,9.913788,1.029464,8.64,0,-999,0,10.8,87.4,10.85,10.84,0.2,0,0,11.27,13.23,0.2,100.7873,3.137,3.137,3.136,100,0,0,0,386.4,134.2,134.2
"2022-11-07 00:25:00",3190749,6.514,200.3331,4.252217,0.5320877,7.58,0,5.199333,199.6688,4.72683,0.8359064,6.64,0,-999,0,10.8,87.3,10.85,10.84,0.2,0,0,11.27,13.23,0.2,100.7912,3.136,3.137,3.136,100,0,0,0,386.4,134.2,134.2
"2022-11-07 00:26:00",3190750,7.357333,205.137,7.778511,0.4607598,8.43,0,5.57,201.0203,9.228923,0.8116075,7.13,0,-999,0,10.8,87.6,10.87,10.85,0.2,0,0,11.27,13.24,0.2,100.7932,3.136,3.136,3.136,100,0,0,0,386.4,134.2,134.2
"2022-11-07 00:27:00",3190751,7.702667,203.3954,5.448258,0.9047391,9.57,0,5.407333,203.2583,7.382505,0.9601559,7.46,0,-999,0,10.87,87.3,10.94,10.94,0.2,0,0,11.27,13.23,0.2,100.7946,3.136,3.136,3.136,100,0,0,0,386.4,134.2,134.2
"2022-11-07 00:28:00",3190752,6.967333,200.5334,4.378112,0.8666831,8.8,0,5.323333,201.8674,7.075978,0.4951184,6.2,0,-999,0,10.9,87.3,10.96,10.93,0.2,0,0,11.27,13.22,0.2,100.794,3.136,3.136,3.136,100,0,0,0,386.4,134.2,134.2
"2022-11-07 00:29:00",3190753,6.973333,205.6014,5.734317,0.7938318,8.5,0,5.545333,207.4004,4.095075,1.017643,7.56,0,-999,0,10.9,87,10.98,10.98,0.2,0,0,11.27,13.23,0.2,100.7943,3.137,3.137,3.136,100,0,0,0,386.4,134.2,134.2
"2022-11-07 00:30:00",3190754,7.398667,203.062,5.75364,0.7282385,8.36,0,5.426,201.5367,5.522868,0.7618206,6.85,0,-999,0,10.9,87.2,10.96,10.93,0.2,0,0,11.27,13.25,0.2,100.7975,3.137,3.137,3.136,100,0,0,0,386.4,134.2,134.2
"2022-11-07 00:31:00",3190755,8.450001,205.8606,6.708627,1.040795,10.26,0,6.451334,202.9718,10.3627,1.437497,9.18,0,-999,0,10.9,87,11,11,0.2,0,0,11.27,13.24,0.2,100.7947,3.137,3.137,3.137,100,0,0,0,386.4,134.2,134.2
"2022-11-07 00:32:00",3190756,7.71,201.6605,4.537705,0.701731,9.17,0,5.758,202.7113,7.711082,0.8961338,7.25,0,-999,0,11,86.4,11.07,11.07,0.2,0,0,11.27,13.24,0.2,100.7924,3.136,3.137,3.136,100,0,0,0,386.4,134.2,134.2
"2022-11-07 00:33:00",3190757,7.288,210.0435,7.528423,0.7900059,8.6,0,5.650667,208.5357,9.311713,1.258811,8.07,0,-999,0,11,86.8,11.06,11.05,0.2,0,0,11.27,13.24,0.2,100.7941,3.136,3.137,3.136,100,0,0,0,386.4,134.2,134.2
"2022-11-07 00:34:00",3190758,7.373333,201.064,5.075724,0.4962883,8.11,0,5.666,203.0659,5.529678,0.7153349,6.59,0,-999,0,11,86.8,11.07,11.06,0.2,0,0,11.27,13.23,0.2,100.7977,3.136,3.136,3.136,100,0,0,0,386.4,134.2,134.2
"2022-11-07 00:35:00",3190759,7.156667,200.7365,4.876581,1.148104,9.37,0,5.761334,198.9518,9.316678,1.198882,8.58,0,-999,0,11,86.7,11.06,11.06,0.2,0,0,11.27,13.24,0.2,100.8009,3.136,3.136,3.136,100,0,0,0,386.4,134.2,134.2
"2022-11-07 00:36:00",3190760,6.557333,203.536,6.796682,0.8897975,8.27,0,5.052666,203.0222,7.840946,0.9351254,7.15,0,-999,0,11,86.5,11.06,11.06,0.2,0,0,11.27,13.24,0.2,100.7987,3.136,3.136,3.136,100,0,0,0,386.4,134.2,134.2
"2022-11-07 00:37:00",3190761,6.431999,204.2646,5.697156,1.079155,8.09,0,5.168,207.2099,6.363349,1.091282,7.78,0,-999,0,10.97,86.9,11.03,10.99,0.2,0,0,11.29,13.25,0.2,100.7995,3.136,3.136,3.136,100,0,0,0,386.4,134.2,134.2
"2022-11-07 00:38:00",3190762,6.644,202.8053,6.958263,1.196828,8.29,0,5.06,200.9492,10.94027,0.8034178,6.76,0,-999,0,10.9,87.4,10.99,10.93,0.2,0,0,11.29,13.23,0.2,100.8007,3.136,3.136,3.135,100,0,0,0,386.4,134.2,134.2
"2022-11-07 00:39:00",3190763,7.558,202.089,8.942079,1.170386,9.5,0,5.517333,200.065,11.07352,0.8499056,6.56,0,-999,0,11.04,86.4,11.13,11.16,0.2,0,0,11.29,13.24,0.2,100.7961,3.134,3.136,3.134,100,0,0,0,386.4,134.2,134.2
"2022-11-07 00:40:00",3190764,7.697334,214.9341,3.234147,0.4684793,8.49,0,6.294,214.542,4.835914,0.5399359,7.32,0,-999,0,11.16,86.2,11.21,11.26,0.2,0,0,11.29,13.22,0.2,100.8026,3.132,3.134,3.132,100,0,0,0,386.4,134.2,134.2
"2022-11-07 00:41:00",3190765,7.628667,214.3989,4.111157,0.5648819,8.53,0,5.894001,214.7305,5.649857,0.8762709,7.16,0,-999,0,11.19,86.1,11.28,11.29,0.2,0,0,11.29,13.24,0.2,100.8048,3.132,3.133,3.132,100,0,0,0,386.4,134.2,134.2
"2022-11-07 00:42:00",3190766,6.331333,210.0789,6.427402,0.4571925,7.1,0,4.638,210.2156,6.679507,0.6348249,5.64,0,-999,0,11.2,86.1,11.32,11.31,0.2,0,0,11.3,13.25,0.2,100.801,3.133,3.133,3.132,100,0,0,0,386.4,134.2,134.2
"2022-11-07 00:43:00",3190767,6.504667,211.2039,5.466001,0.9824789,8.55,0,5.056,209.8134,7.935639,1.091878,7.14,0,-999,0,11.2,86.2,11.3,11.27,0.2,0,0,11.31,13.24,0.2,100.8029,3.132,3.133,3.132,100,0,0,0,386.4,134.2,134.2
"2022-11-07 00:44:00",3190768,7.220666,203.8703,6.402909,0.8277317,8.42,0,5.511333,205.4008,4.976436,1.145343,7.84,0,-999,0,11.19,86.3,11.24,11.22,0.2,0,0,11.31,13.24,0.2,100.7994,3.132,3.132,3.132,100,0,0,0,386.4,134.2,134.2
"2022-11-07 00:45:00",3190769,9.660666,206.8096,5.986377,0.9675637,11.11,0,7.756667,203.1409,6.874808,1.368837,9.56,0,-999,0,11.2,85.8,11.27,11.25,0.2,0,0,11.33,13.23,0.2,100.7999,3.132,3.132,3.132,100,0,0,0,386.4,134.2,134.2
"2022-11-07 00:46:00",3190770,8.762667,207.1985,8.48606,1.008163,11.06,0,6.867333,204.5992,9.276438,1.269254,8.87,0,-999,0,11.23,85.4,11.34,11.35,0.2,0,0,11.33,13.22,0.2,100.7956,3.131,3.132,3.131,100,0,0,0,386.4,134.2,134.2
"2022-11-07 00:47:00",3190771,8.643999,202.1974,6.858921,1.046147,10.38,0,6.766,206.0459,9.205967,1.185303,9.45,0,-999,0,11.37,84.6,11.41,11.43,0.2,0,0,11.34,13.23,0.2,100.7966,3.131,3.131,3.13,100,0,0,0,386.4,134.2,134.2
"2022-11-07 00:48:00",3190772,8.323334,206.1339,3.158871,0.6100785,9.93,0,6.4,208.4668,4.239539,0.9167042,8.51,0,-999,0,11.33,85.2,11.37,11.36,0.2,0,0,11.35,13.24,0.2,100.7943,3.132,3.132,3.131,100,0,0,0,386.4,134.2,134.2
"2022-11-07 00:49:00",3190773,7.282,205.1402,5.995251,1.601741,9.73,0,5.904666,204.674,5.206945,1.145332,8.14,0,-999,0,11.27,85.6,11.34,11.28,0.2,0,0,11.36,13.24,0.2,100.7982,3.132,3.132,3.132,100,0,0,0,386.4,134.2,134.2
"2022-11-07 00:50:00",3190774,8.395999,197.467,4.302009,0.7280733,10.27,0,6.372666,196.2724,5.491297,1.110162,8.46,0,-999,0,11.3,85.2,11.36,11.32,0.2,0,0,11.36,13.23,0.2,100.8003,3.132,3.132,3.132,100,0,0,0,386.4,134.2,134.2
"2022-11-07 00:51:00",3190775,7.271334,206.8187,7.426656,1.039634,8.71,0,5.548,202.3954,10.48911,0.9119737,7.24,0,-999,0,11.29,85.1,11.34,11.31,0.2,0,0,11.36,13.22,0.2,100.7941,3.133,3.133,3.132,100,0,0,0,386.4,134.2,134.2
"2022-11-07 00:52:00",3190776,7.651334,201.0642,5.565373,1.383999,10.04,0,5.692667,198.458,6.127789,1.180042,7.67,0,-999,0,11.2,85.8,11.26,11.2,0.2,0,0,11.36,13.22,0.2,100.7966,3.134,3.134,3.133,100,0,0,0,386.4,134.2,134.2
"2022-11-07 00:53:00",3190777,8.126667,201.9221,7.277135,1.128714,9.59,0,5.730667,198.4721,7.777974,0.7476494,7.28,0,-999,0,11.17,85.9,11.2,11.18,0.2,0,0,11.38,13.22,0.2,100.7959,3.135,3.135,3.134,100,0,0,0,386.4,134.2,134.2
"2022-11-07 00:54:00",3190778,8.182001,197.8034,5.728315,0.6312759,9.48,0,5.291333,194.9304,7.170812,0.8957742,7.09,0,-999,0,11.15,85.8,11.2,11.19,0.2,0,0,11.38,13.23,0.2,100.7952,3.136,3.136,3.135,100,0,0,0,386.4,134.2,134.2
"2022-11-07 00:55:00",3190779,8.142667,199.3347,8.241063,0.9146253,10.91,0,5.788667,202.0001,6.416037,0.8704776,7.31,0,-999,0,11.2,85.7,11.21,11.21,0.2,0,0,11.38,13.23,0.2,100.7975,3.136,3.136,3.136,100,0,0,0,386.4,134.2,134.2
"2022-11-07 00:56:00",3190780,8.930667,197.812,6.265625,0.633082,9.82,0,6.217333,201.6623,5.470522,1.014445,7.85,0,-999,0,11.2,85.7,11.25,11.22,0.2,0,0,11.38,13.24,0.2,100.801,3.141,3.141,3.137,100,0,0,0,386.4,134.2,134.2
"2022-11-07 00:57:00",3190781,8.078,205.4116,6.681681,1.040367,10.14,0,6.081334,208.8107,9.623622,0.4938133,6.85,0,-999,0,11.2,86,11.25,11.22,0.2,0,0,11.38,13.22,0.2,100.8007,3.143,3.143,3.141,100,0,0,0,386.4,134.2,134.2
"2022-11-07 00:58:00",3190782,8.011333,206.6727,6.382517,1.309635,10.49,0,6.274667,207.8744,5.664715,0.7969599,7.55,0,-999,0,11.18,86,11.22,11.2,0.2,0,0,11.38,13.21,0.2,100.8035,3.143,3.143,3.143,100,0,0,0,386.4,134.2,134.2
"2022-11-07 00:59:00",3190783,6.741333,207.2672,5.010972,0.4627003,7.52,0,5.630667,204.6774,6.253307,0.8094069,7.14,0,-999,0,11.1,86.5,11.17,11.11,0.2,0,0,11.39,13.22,0.2,100.8016,3.145,3.145,3.143,100,0,0,0,386.4,134.2,134.2
"2022-11-07 01:00:00",3190784,8.036666,201.0707,5.321434,1.12475,9.7,0,5.574,201.2671,5.244375,0.9036061,7.38,0,-999,0,11.1,86.4,11.13,11.1,0.2,0,0,11.4,13.23,0.2,100.807,3.149,3.149,3.145,100,0,0,0,386.4,134.2,134.2
"2022-11-07 01:01:00",3190785,8.602667,205.2911,9.939813,1.10145,10.48,0,6.218,206.1438,12.1686,0.9430321,7.69,0,-999,0,11.1,86.1,11.18,11.16,0.2,0,0,11.4,13.21,0.2,100.809,3.15,3.151,3.149,100,0,0,0,386.4,134.2,134.2
"2022-11-07 01:02:00",3190786,6.879333,202.5359,5.461638,0.7998205,7.77,0,4.521334,200.8091,6.416206,0.8149509,6.02,0,-999,0,11.19,85.9,11.23,11.23,0.2,0,0,11.4,13.22,0.2,100.8077,3.152,3.152,3.15,100,0,0,0,386.4,134.2,134.2
"2022-11-07 01:03:00",3190787,6.874,209.6034,5.003034,0.7487127,8.64,0,5.334667,205.7935,5.865354,0.5628127,6.42,0,-999,0,11.19,86.2,11.23,11.22,0.2,0,0,11.4,13.22,0.2,100.8116,3.153,3.153,3.152,100,0,0,0,386.4,134.2,134.2
"2022-11-07 01:04:00",3190788,7.964667,210.5651,11.06716,0.9565624,9.45,0,5.928,209.0282,10.82656,1.352026,9,0,-999,0,11.17,86.3,11.24,11.2,0.2,0,0,11.41,13.22,0.2,100.8119,3.154,3.154,3.153,100,0,0,0,386.4,134.2,134.2
"2022-11-07 01:05:00",3190789,7.614667,202.531,4.949399,0.5016754,8.51,0,5.471333,201.2062,6.218118,0.9271883,7.08,0,-999,0,11.2,85.8,11.28,11.28,0.2,0,0,11.43,13.22,0.2,100.8132,3.155,3.155,3.154,100,0,0,0,386.4,134.2,134.2
"2022-11-07 01:06:00",3190790,6.76,206.1365,5.545831,0.6524721,7.93,0,5.708,208.8001,3.986162,0.6382914,6.75,0,-999,0,11.2,85.7,11.3,11.28,0.2,0,0,11.43,13.22,0.2,100.812,3.157,3.157,3.154,100,0,0,0,386.4,134.2,134.2
"2022-11-07 01:07:00",3190791,6.011333,203.4664,5.975212,0.7269102,8.02,0,4.309333,204.3264,4.984041,0.7497951,5.74,0,-999,0,11.15,86.1,11.21,11.17,0.2,0,0,11.43,13.22,0.2,100.8097,3.157,3.158,3.157,100,0,0,0,386.4,134.2,134.2
"2022-11-07 01:08:00",3190792,7.381333,207.2664,4.137824,0.6791747,8.3,0,5.717333,206.151,6.364047,1.012735,7.22,0,-999,0,11.1,86.2,11.15,11.1,0.2,0,0,11.44,13.22,0.2,100.8082,3.158,3.159,3.158,100,0,0,0,386.4,134.2,134.2
"2022-11-07 01:09:00",3190793,6.536,199.9949,6.955861,0.5014087,7.53,0,4.944666,203.2159,10.09837,1.065012,6.42,0,-999,0,11.1,86.1,11.13,11.1,0.2,0,0,11.45,13.22,0.2,100.8056,3.159,3.159,3.158,100,0,0,0,386.4,134.2,134.2
"2022-11-07 01:10:00",3190794,8.091333,208.7347,7.44168,1.311533,10.33,0,6.029999,204.0728,11.11954,1.036269,7.72,0,-999,0,11.07,86.1,11.11,11.08,0.2,0,0,11.45,13.22,0.2,100.8021,3.161,3.161,3.159,100,0,0,0,386.4,134.2,134.2
"2022-11-07 01:11:00",3190795,8.065333,205.9935,6.557934,1.244105,10.06,0,6.234001,208.5998,4.628978,0.7032668,7.38,0,-999,0,11.1,85.8,11.17,11.17,0.2,0,0,11.45,13.23,0.2,100.8069,3.163,3.163,3.161,100,0,0,0,386.4,134.2,134.2
"2022-11-07 01:12:00",3190796,7.592,209.7979,7.923568,0.865303,9.03,0,5.116667,207.7352,7.255599,0.7352973,6.75,0,-999,0,11.11,85.6,11.19,11.19,0.2,0,0,11.45,13.25,0.2,100.8048,3.164,3.164,3.163,100,0,0,0,386.4,134.2,134.2
"2022-11-07 01:13:00",3190797,8.245333,203.798,6.676339,1.452115,10.96,0,6.61,203.1952,7.964044,0.9203623,7.82,0,-999,0,11.17,85.6,11.21,11.21,0.2,0,0,11.45,13.21,0.2,100.8086,3.165,3.165,3.163,100,0,0,0,386.4,134.2,134.2
"2022-11-07 01:14:00",3190798,7.121333,201.7322,3.990445,1.205929,9.81,0,5.325999,205.6684,5.011993,0.551033,6.33,0,-999,0,11.2,85.5,11.22,11.21,0.2,0,0,11.45,13.23,0.2,100.8055,3.166,3.166,3.165,100,0,0,0,386.4,134.2,134.2
"2022-11-07 01:15:00",3190799,8.217334,207.6681,4.669891,1.020754,9.99,0,5.902001,205.8622,7.131909,0.7759656,6.97,0,-999,0,11.15,85.7,11.19,11.17,0.2,0,0,11.45,13.23,0.2,100.8022,3.167,3.167,3.166,100,0,0,0,386.4,134.2,134.2
"2022-11-07 01:16:00",3190800,8.355333,210.3991,5.198355,1.330127,11.18,0,6.783333,213.1448,6.605587,1.01939,8.5,0,-999,0,11.13,85.7,11.16,11.13,0.2,0,0,11.45,13.23,0.2,100.8047,3.168,3.168,3.167,100,0,0,0,386.4,134.2,134.2
"2022-11-07 01:17:00",3190801,7.147999,203.9983,4.485644,0.7782305,8.95,0,5.368667,201.4678,5.109212,0.6651402,6.39,0,-999,0,11.03,86.1,11.08,11.05,0.2,0,0,11.45,13.22,0.2,100.8071,3.17,3.17,3.168,100,0,0,0,386.4,134.2,134.2
"2022-11-07 01:18:00",3190802,7.565333,204.1328,4.615197,0.8255733,8.91,0,5.688001,206.7985,5.06093,0.8675728,6.84,0,-999,0,11.03,86.1,11.1,11.08,0.2,0,0,11.45,13.23,0.2,100.8051,3.171,3.171,3.169,100,0,0,0,386.4,134.2,134.2
"2022-11-07 01:19:00",3190803,6.566,201.9976,4.54461,0.3801192,7.31,0,5.189333,205.2029,8.028683,0.6290677,6.49,0,-999,0,11.03,86.1,11.06,11.05,0.2,0,0,11.45,13.23,0.2,100.8076,3.173,3.173,3.171,100,0,0,0,386.4,134.2,134.2
"2022-11-07 01:20:00",3190804,6.504667,205.6664,5.813909,0.5910428,7.56,0,5.629333,206.5312,4.394017,0.5606361,6.72,0,-999,0,11,86.4,11.06,11.03,0.2,0,0,11.45,13.22,0.2,100.8131,3.173,3.173,3.173,100,0,0,0,386.4,134.2,134.2
"2022-11-07 01:21:00",3190805,7.896,206.4099,6.785791,1.291706,11.15,0,6.138667,204.9663,8.882321,1.262985,8.71,0,-999,0,11,86.7,11.03,11,0.2,0,0,11.45,13.23,0.2,100.8189,3.174,3.174,3.173,100,0,0,0,386.4,134.2,134.2
"2022-11-07 01:22:00",3190806,6.876,200.1295,7.103342,0.6430635,8.29,0,5.53,200.6106,9.785105,0.7107742,6.59,0,-999,0,11,86.5,11.04,11.03,0.2,0,0,11.45,13.23,0.2,100.8171,3.176,3.176,3.174,100,0,0,0,386.4,134.2,134.2
"2022-11-07 01:23:00",3190807,6.896667,196.993,6.039464,1.042866,8.67,0,5.37,196.8772,6.814163,0.7556807,6.46,0,-999,0,11,86.5,11.03,11.03,0.2,0,0,11.45,13.2,0.2,100.8152,3.176,3.176,3.176,100,0,0,0,386.4,134.2,134.2
"2022-11-07 01:24:00",3190808,7.016,197.6501,6.662526,0.9261445,9.23,0,4.866,200.0687,9.230287,0.8458668,6.07,0,-999,0,11.01,86.3,11.07,11.06,0.2,0,0,11.45,13.24,0.2,100.8139,3.177,3.178,3.177,100,0,0,0,386.4,134.2,134.2
"2022-11-07 01:25:00",3190809,7,203.5061,9.393912,1.041941,8.55,0,5.197333,206.5499,9.929452,0.9758856,7.06,0,-999,0,11.06,86.2,11.1,11.1,0.2,0,0,11.44,13.23,0.2,100.8151,3.178,3.178,3.177,100,0,0,0,386.4,134.2,134.2
"2022-11-07 01:26:00",3190810,8.060667,199.3998,6.052306,1.543008,10.88,0,5.928667,200.5198,9.207669,0.9136948,7.92,0,-999,0,11.1,86.1,11.16,11.15,0.2,0,0,11.43,13.22,0.2,100.8208,3.178,3.178,3.178,100,0,0,0,386.4,134.2,134.2
"2022-11-07 01:27:00",3190811,8.531333,210.0703,4.820943,0.7881105,9.57,0,6.509333,208.0065,6.100578,0.9323767,8.39,0,-999,0,11.1,86.1,11.15,11.12,0.2,0,0,11.43,13.22,0.2,100.8234,3.179,3.179,3.178,100,0,0,0,386.4,134.2,134.2
"2022-11-07 01:28:00",3190812,6.989333,207.1227,8.240881,0.8974295,8.59,0,5.199333,209.2742,8.675635,0.7219276,7.06,0,-999,0,11.07,86.3,11.1,11.08,0.2,0,0,11.43,13.2,0.2,100.8259,3.179,3.179,3.178,100,0,0,0,386.4,134.2,134.2
"2022-11-07 01:29:00",3190813,7.294,206.5399,8.914032,1.612405,10.88,0,5.572667,202.2829,12.90611,1.497818,8.48,0,-999,0,10.98,86.9,11.03,10.97,0.2,0,0,11.43,13.23,0.2,100.8202,3.18,3.18,3.179,100,0,0,0,386.4,134.2,134.2
"2022-11-07 01:30:00",3190814,8.429333,206.2719,6.471388,1.176897,10.56,0,6.725333,203.1312,9.689892,0.8516405,8.39,0,-999,0,11.01,86.4,11.09,11.09,0.2,0,0,11.43,13.22,0.2,100.8214,3.18,3.18,3.179,100,0,0,0,386.4,134.2,134.2
"2022-11-07 01:31:00",3190815,7.614,210.2173,9.991267,0.8834011,8.75,0,6.128001,210.3442,10.75333,0.8247036,7.78,0,-999,0,11,86.4,11.07,11.05,0.2,0,0,11.43,13.2,0.2,100.8288,3.18,3.181,3.18,100,0,0,0,386.4,134.2,134.2
"2022-11-07 01:32:00",3190816,7.886667,203.1572,11.12477,1.060036,9.39,0,5.733333,198.4462,9.577824,0.7042223,6.84,0,-999,0,11,86.2,11.09,11.08,0.2,0,0,11.43,13.22,0.2,100.8303,3.18,3.181,3.18,100,0,0,0,386.4,134.2,134.2
"2022-11-07 01:33:00",3190817,10.87667,210.3296,6.625903,0.6119441,12.05,0,8.753333,210.7251,6.839499,1.068467,10.43,0,-999,0,11.06,86,11.17,11.16,0.2,0,0,11.43,13.2,0.2,100.828,3.181,3.181,3.18,100,0,0,0,386.4,134.2,134.2
"2022-11-07 01:34:00",3190818,9.802668,207.8016,4.804065,0.6340186,10.64,0,6.974,207.2721,5.624685,1.171477,9.27,0,-999,0,11.2,85.2,11.29,11.31,0.2,0,0,11.43,13.2,0.2,100.8282,3.18,3.181,3.18,100,0,0,0,386.4,134.2,134.2
"2022-11-07 01:35:00",3190819,8.354001,208.6684,3.588983,0.6898483,9.63,0,7.142667,211.204,4.605645,0.8985802,8.46,0,-999,0,11.17,85.9,11.23,11.21,0.2,0,0,11.43,13.23,0.2,100.8267,3.18,3.181,3.18,100,0,0,0,386.4,134.2,134.2
"2022-11-07 01:36:00",3190820,7.855333,202.4647,4.572145,0.8235683,8.84,0,5.548667,200.6788,7.456236,0.7261209,6.85,0,-999,0,11.04,86.6,11.1,11.06,0.2,0,0,11.43,13.21,0.2,100.8312,3.181,3.182,3.18,100,0,0,0,386.4,134.2,134.2
"2022-11-07 01:37:00",3190821,9.435333,205.2148,6.328136,1.29519,11.18,0,7.212667,208.3361,7.980115,1.330035,9.82,0,-999,0,11.08,86.2,11.16,11.12,0.2,0,0,11.43,13.22,0.2,100.826,3.181,3.182,3.181,100,0,0,0,386.4,134.2,134.2
"2022-11-07 01:38:00",3190822,7.303999,200.8607,6.126838,0.7936564,8.45,0,5.73,198.5966,3.910276,1.380821,8.44,0,-999,0,11.08,86.3,11.13,11.09,0.2,0,0,11.43,13.21,0.2,100.8268,3.181,3.182,3.18,100,0,0,0,386.4,134.2,134.2
"2022-11-07 01:39:00",3190823,8.734667,206.3447,7.355088,0.9742611,10.19,0,6.669333,206.7311,5.8901,0.7271907,8,0,-999,0,11.09,86.3,11.18,11.14,0.2,0,0,11.43,13.23,0.2,100.8319,3.18,3.181,3.18,100,0,0,0,386.4,134.2,134.2
"2022-11-07 01:40:00",3190824,8.580667,206.8746,7.810989,1.304972,10.91,0,6.984001,203.4665,7.505171,1.440295,9.36,0,-999,0,11.13,86.2,11.2,11.19,0.2,0,0,11.43,13.23,0.2,100.8349,3.181,3.182,3.18,100,0,0,0,386.4,134.2,134.2
"2022-11-07 01:41:00",3190825,7.486667,208.8756,6.455601,0.9670207,9.85,0,6.165334,209.5417,5.74553,1.090614,8.91,0,-999,0,11.11,86.4,11.18,11.16,0.2,0,0,11.43,13.21,0.2,100.8399,3.181,3.181,3.18,100,0,0,0,386.4,134.2,134.2
"2022-11-07 01:42:00",3190826,7.270667,211.6667,2.24098,0.7085333,8.48,0,5.442,209.6633,6.006265,1.144781,7.08,0,-999,0,11.1,86.7,11.17,11.13,0.2,0,0,11.43,13.22,0.2,100.845,3.18,3.182,3.18,100,0,0,0,386.4,134.2,134.2
"2022-11-07 01:43:00",3190827,6.356,209.0031,6.423452,0.7930347,7.68,0,4.834667,210.3416,6.946509,0.7436654,6.12,0,-999,0,11.05,87,11.1,11.08,0.2,0,0,11.45,13.23,0.2,100.8424,3.18,3.181,3.18,100,0,0,0,386.4,134.2,134.2
"2022-11-07 01:44:00",3190828,6.267334,204.6651,5.825411,0.8323978,8.25,0,5.160001,203.6102,7.607585,0.6998476,6.38,0,-999,0,11,87.2,11.03,11.01,0.2,0,0,11.45,13.23,0.2,100.8469,3.181,3.182,3.18,100,0,0,0,386.4,134.2,134.2
"2022-11-07 01:45:00",3190829,7.734001,211.1371,5.557295,1.335509,9.42,0,6.2,206.606,6.547349,1.088308,8.17,0,-999,0,11,86.7,11.05,11.04,0.2,0,0,11.45,13.23,0.2,100.8447,3.181,3.182,3.181,100,0,0,0,386.4,134.2,134.2
"2022-11-07 01:46:00",3190830,7.046,205.8117,8.724025,0.9356623,8.46,0,5.797334,203.749,9.513902,0.8068165,6.95,0,-999,0,11,86.4,11.07,11.07,0.2,0,0,11.45,13.23,0.2,100.8422,3.182,3.182,3.181,100,0,0,0,386.4,134.2,134.2
"2022-11-07 01:47:00",3190831,7.351999,200.5832,6.588855,0.844079,8.78,0,5.11,199.9329,4.753175,0.760605,6.8,0,-999,0,11,86.8,11.03,11.02,0.2,0,0,11.45,13.22,0.2,100.8399,3.182,3.183,3.182,100,0,0,0,386.4,134.2,134.2